Location: Andrea Ville Subdivision
(14.3485°N, 120.9580°E)
Time: 02:28:49
(UTC+00:00)

Cosmos 1953 - Pass Details

Date: 13 January 2026
Orbit: 474 x 489 km, 82.5° (Epoch: 15 February)

Event Time Altitude Azimuth Distance (km) Brightness Sun altitude
Rises 10:39:54 0° 348° (NNW) 2,564 5.7 -13.2°
Reaches altitude 10° 10:42:03 10° 343° (NNW) 1,681 4.8 -13.7°
Maximum altitude 10:45:37 50° 267° (W) 627 3.0 -14.5°
Drops below altitude 10° 10:49:11 10° 191° (S) 1,673 5.2 -15.3°
Sets 10:51:18 0° 185° (S) 2,550 6.1 -15.8°
